Location: Evergreen Manor
(41.4083°N, 81.4939°W)
Time: 20:07:29
(UTC+00:00)

Meteor 2-4 Rocket - Pass Details

Date: 11 December 2019
Orbit: 798 x 909 km, 81.2° (Epoch: 25 January)

Event Time Altitude Azimuth Distance (km) Brightness Sun altitude
Rises 00:25:16 0° 186° (S) 3,520 7.1 -27.1°
Reaches altitude 10° 00:27:44 10° 186° (S) 2,578 6.3 -27.5°
Enters shadow 00:33:11 77° 167° (SSE) 923 3.7 -28.6°
